Location: Home
(42.5358°N, 72.7383°W)
Time: 18:00:41
(UTC-04:00)

Altair - Visible Passes

Search period start: 27 May 2022 00:00
Search period end: 06 June 2022 00:00
Orbit: 1501 x 1683 km, 47.2° (Epoch: 26 May)

Date Brightness Start Highest point End Pass type
(mag) Time Alt. Az. Time Alt. Az. Time Alt. Az.
27 May 8.7 01:04:39 10° W 01:11:20 22° WSW 01:11:20 22° WSW visible
27 May 7.6 22:33:02 10° WNW 22:43:09 70° SSW 22:49:07 28° SE visible
28 May 8.6 00:39:08 10° WNW 00:46:42 25° SW 00:47:07 25° SW visible
28 May 7.7 22:07:48 10° WNW 22:17:56 74° SSW 22:24:57 23° SE visible
29 May 8.5 00:13:40 10° WNW 00:21:38 27° SW 00:22:56 26° SW visible
29 May 7.7 21:42:33 10° WNW 21:52:44 78° SSW 22:00:50 18° SE visible
29 May 8.4 23:48:15 10° WNW 23:56:34 30° SW 23:58:49 27° SSW visible
30 May 7.7 21:17:19 10° WNW 21:27:31 81° SSW 21:36:45 13° ESE visible
30 May 8.4 23:22:52 10° WNW 23:31:28 33° SW 23:34:44 27° SSW visible
31 May 7.7 20:52:05 10° WNW 21:02:17 85° SSW 21:12:26 10° ESE visible
31 May 8.4 22:57:31 10° WNW 23:06:21 36° SW 23:10:43 25° S visible
01 Jun 8.3 22:32:11 10° WNW 22:41:14 39° SW 22:46:44 23° S visible
02 Jun 8.3 22:06:52 10° WNW 22:16:07 42° SW 22:22:47 19° SSE visible
03 Jun 8.2 21:41:34 10° WNW 21:50:59 45° SW 21:58:54 15° SSE visible
03 Jun 9.4 23:51:45 10° WSW 23:53:48 11° WSW 23:55:51 10° SW visible
04 Jun 8.2 21:16:17 10° WNW 21:25:50 49° SW 21:35:03 11° SSE visible
04 Jun 9.3 23:25:01 10° W 23:28:47 13° WSW 23:32:32 10° SW visible
05 Jun 8.2 20:51:01 10° WNW 21:00:41 52° SW 21:10:20 10° SSE visible
05 Jun 9.3 22:58:54 10° W 23:03:44 15° WSW 23:08:34 10° SSW visible
